TimeEST,TemperatureF,Dew PointF,Humidity,Sea Level PressureIn,VisibilityMPH,Wind Direction,Wind SpeedMPH,Gust SpeedMPH,PrecipitationIn,Events,Conditions,WindDirDegrees,DateUTC
12:51 AM,33.1,17.1,52,29.81,10.0,West,19.6,27.6,N/A,,Scattered Clouds,270,2013-11-28 05:51:00
1:51 AM,33.1,15.1,48,29.84,10.0,WNW,21.9,38.0,N/A,,Partly Cloudy,300,2013-11-28 06:51:00
2:51 AM,32.0,15.1,50,29.90,10.0,West,18.4,25.3,N/A,,Scattered Clouds,280,2013-11-28 07:51:00
3:51 AM,30.9,12.9,47,29.95,10.0,WNW,24.2,39.1,N/A,,Partly Cloudy,290,2013-11-28 08:51:00
4:51 AM,30.9,16.0,54,30.01,10.0,West,17.3,-,N/A,,Mostly Cloudy,280,2013-11-28 09:51:00
5:51 AM,30.0,14.0,51,30.07,10.0,WNW,19.6,-,N/A,,Partly Cloudy,290,2013-11-28 10:51:00
6:51 AM,30.0,12.9,49,30.13,10.0,West,11.5,-,N/A,,Partly Cloudy,270,2013-11-28 11:51:00
7:51 AM,30.0,10.9,45,30.17,10.0,West,19.6,24.2,N/A,,Partly Cloudy,280,2013-11-28 12:51:00
8:51 AM,30.9,10.9,43,30.22,10.0,WNW,13.8,26.5,N/A,,Partly Cloudy,290,2013-11-28 13:51:00
9:51 AM,33.1,12.0,42,30.24,10.0,WNW,18.4,24.2,N/A,,Partly Cloudy,300,2013-11-28 14:51:00
10:51 AM,34.0,12.0,40,30.24,10.0,WNW,15.0,25.3,N/A,,Partly Cloudy,290,2013-11-28 15:51:00
11:51 AM,35.1,9.0,34,30.25,10.0,NW,12.7,26.5,N/A,,Partly Cloudy,310,2013-11-28 16:51:00
12:51 PM,36.0,9.0,33,30.26,10.0,WNW,20.7,25.3,N/A,,Partly Cloudy,290,2013-11-28 17:51:00
1:51 PM,37.0,8.1,30,30.28,10.0,WNW,13.8,26.5,N/A,,Partly Cloudy,300,2013-11-28 18:51:00
2:51 PM,36.0,7.0,30,30.30,10.0,West,17.3,23.0,N/A,,Partly Cloudy,280,2013-11-28 19:51:00
3:51 PM,35.1,7.0,31,30.33,10.0,WNW,13.8,21.9,N/A,,Partly Cloudy,300,2013-11-28 20:51:00
4:51 PM,33.1,7.0,34,30.36,10.0,WNW,11.5,-,N/A,,Partly Cloudy,300,2013-11-28 21:51:00
5:51 PM,33.1,9.0,37,30.40,10.0,NW,6.9,-,N/A,,Partly Cloudy,310,2013-11-28 22:51:00
6:51 PM,32.0,8.1,37,30.43,10.0,NW,6.9,-,N/A,,Partly Cloudy,310,2013-11-28 23:51:00
7:51 PM,30.9,9.0,40,30.45,10.0,NNW,5.8,-,N/A,,Mostly Cloudy,330,2013-11-29 00:51:00
8:51 PM,32.0,10.0,40,30.46,10.0,NW,4.6,-,N/A,,Scattered Clouds,320,2013-11-29 01:51:00
9:51 PM,32.0,10.9,42,30.47,10.0,West,3.5,-,N/A,,Mostly Cloudy,260,2013-11-29 02:51:00
10:51 PM,32.0,12.0,44,30.48,10.0,WSW,5.8,-,N/A,,Overcast,240,2013-11-29 03:51:00
11:51 PM,32.0,12.0,44,30.48,10.0,WSW,5.8,-,N/A,,Overcast,240,2013-11-29 04:51:00